Probability
0 0 0 0 0 0 0 0 0 0 0 0 1 0 1 2 3 3 3 2 1 2 2 2 5 6 5 6 6 6 6 5 4 3 4 5 5 4 4 3 4 4 4 4
0 0 0 0 0 0 0 0 0 0 0 0 1 0 0 1 3 3 3 2 2 3 5 7 8 7 5 4 5 6 6 6 5 4 3 4 5 5 4 3 4 5 5 5
0 0 0 0 0 0 0 0 0 0 0 0 0 0 0 1 2 3 3 3 3 6 10 13 14 11 5 3 4 5 6 6 6 5 4 4 4 4 4 4 5 6 5 5
0 0 0 0 0 0 0 0 0 0 0 0 0 0 0 0 1 3 3 3 4 8 13 16 16 13 7 4 4 4 4 4 4 4 5 4 3 3 3 5 6 5 4 4
0 0 0 0 0 0 0 0 0 0 0 0 0 0 0 0 1 2 3 3 3 6 12 16 15 13 9 5 4 3 3 3 3 3 4 4 3 3 4 6 6 4 3 3
0 0 0 0 0 0 0 0 0 0 0 0 0 0 0 0 1 2 3 2 2 5 10 13 13 11 9 6 4 4 4 4 4 3 3 3 3 3 5 6 6 5 4 4
0 0 0 0 0 0 0 0 0 0 0 0 0 0 0 0 1 2 2 2 2 4 8 11 11 11 10 8 7 6 6 6 6 5 3 2 2 3 4 6 6 5 5 6
0 0 0 0 0 0 0 0 0 0 0 0 0 0 0 1 1 2 2 2 3 4 6 8 9 10 11 9 8 8 7 6 5 5 4 3 3 3 3 5 5 5 6 6
0 0 0 0 0 0 0 0 0 0 0 0 0 0 0 1 2 2 2 1 3 5 5 7 10 12 11 9 8 7 6 4 4 4 5 4 3 3 3 4 4 4 6 6
0 0 0 0 0 0 0 0 0 0 0 0 0 0 0 1 1 2 1 1 3 5 5 8 12 14 12 9 7 6 4 3 3 4 5 4 3 3 3 3 3 4 5 6
0 0 0 0 0 0 0 0 0 0 0 0 0 0 0 0 0 0 0 1 3 3 4 8 13 15 13 9 7 5 3 2 3 4 5 4 3 2 2 3 2 3 4 5
0 0 0 0 0 0 0 0 0 0 0 0 0 0 0 0 0 0 0 1 2 3 3 7 11 13 12 10 6 3 1 1 1 3 5 5 4 3 3 3 4 3 2 2
0 0 0 0 0 0 0 0 0 0 0 0 0 0 0 0 0 0 0 1 2 2 3 6 9 11 10 9 5 2 1 1 2 4 6 6 5 5 5 5 5 4 2 1
0 0 0 0 0 0 0 0 0 0 0 0 0 0 0 0 0 0 0 1 2 2 3 6 9 11 10 8 5 4 3 3 4 6 7 6 6 5 6 6 5 4 3 2
0 0 0 0 0 0 0 0 0 0 0 0 0 0 0 0 0 0 0 1 1 2 3 6 9 10 10 8 6 6 6 6 7 8 7 6 4 4 5 5 4 3 3 3
0 0 0 0 0 0 0 0 0 0 0 0 0 0 0 0 0 1 0 0 0 1 2 3 5 7 7 7 6 7 8 9 8 7 5 4 4 4 4 5 4 4 4 4
0 0 0 0 0 0 0 0 0 0 0 0 0 0 0 0 0 0 0 0 0 0 0 1 1 3 5 6 6 7 8 9 8 5 4 4 5 6 6 5 5 6 6 6
0 0 0 0 0 0 0 0 0 0 0 0 0 0 0 0 0 0 0 0 0 0 0 0 0 1 3 4 5 6 7 8 8 6 6 7 8 7 6 5 5 5 5 5
0 0 0 0 0 0 0 0 0 0 0 0 0 0 0 0 0 0 0 0 0 0 0 0 0 0 1 2 3 4 6 8 8 6 7 9 8 6 5 4 4 3 2 2
0 0 0 0 0 0 0 0 0 0 0 0 0 0 0 0 0 0 0 0 0 0 0 0 0 0 0 1 2 3 4 6 7 6 7 7 6 4 3 3 3 2 1 0
0 0 0 0 0 0 0 0 0 0 0 0 0 0 0 0 0 0 0 1 1 1 1 0 0 0 0 0 1 1 3 6 7 6 5 4 3 3 3 3 3 1 0 0
0 0 0 0 0 0 0 0 0 0 0 0 0 0 0 0 0 0 0 1 2 3 2 1 0 0 0 0 0 0 2 6 7 5 4 3 3 3 3 3 2 1 0 0
0 0 0 0 0 0 0 0 0 0 0 0 0 0 0 0 0 0 0 1 3 3 2 1 0 0 0 0 0 1 3 6 6 4 3 3 3 3 3 2 1 1 1 1
0 0 0 0 0 0 0 0 0 0 0 0 0 0 0 0 0 0 1 2 3 3 1 1 1 1 1 0 1 2 4 5 4 3 3 3 2 2 1 1 1 2 2 2
0 0 0 0 0 0 0 0 0 0 0 0 0 0 0 0 0 1 2 3 3 2 1 1 2 2 1 0 1 3 4 5 4 3 2 1 1 1 0 0 1 1 1 1
0 0 0 0 0 0 0 0 0 0 0 0 0 0 0 0 0 1 2 3 3 1 0 0 1 1 1 0 1 2 4 4 3 2 1 0 0 0 0 0 0 1 0 0
Wind_Speed
8 7 6 6 7 7 6 5 4 3 5 6 6 6 5 8 6 5 5 6 7 7 7 6 6 5 4 4 5 5 4 3 3 2 2 2 2 1 1 2 2 2 2 3
7 8 7 5 5 8 7 7 5 2 2 4 5 5 4 6 7 5 4 5 6 7 7 7 7 6 4 4 4 4 4 3 3 2 2 1 2 2 2 2 2 1 2 3
8 4 4 5 7 8 8 6 5 3 2 5 5 5 5 5 6 6 4 4 5 7 7 7 7 6 4 4 4 4 4 4 3 3 2 2 2 1 1 1 1 1 2 2
6 6 5 7 7 7 6 4 6 6 5 4 5 4 5 6 7 7 6 4 3 5 6 6 6 6 5 4 3 3 4 4 3 3 2 2 2 2 2 2 2 1 2 2
5 5 6 7 6 7 5 5 7 8 7 7 7 6 3 6 7 7 6 5 4 5 6 6 6 6 6 5 4 3 4 3 3 3 3 2 2 1 1 2 2 2 2 2
7 5 4 5 6 6 6 7 8 8 5 8 8 6 3 3 5 7 6 7 6 6 6 6 6 5 5 5 4 3 3 3 3 3 3 2 2 2 2 2 2 1 2 1
9 8 6 5 6 6 6 5 3 4 5 5 5 4 2 4 5 6 6 6 6 5 6 6 6 6 5 5 5 4 4 3 3 3 2 2 3 2 2 2 2 2 1 1
7 7 6 5 5 5 7 7 4 3 3 2 2 3 3 5 6 6 5 5 5 5 5 5 6 5 5 5 5 4 4 3 3 3 2 2 2 2 1 2 2 2 2 2
6 2 3 3 4 6 6 6 5 6 8 6 3 3 4 5 6 6 5 5 4 5 4 5 5 5 5 5 5 4 4 3 3 3 2 2 2 2 2 2 2 2 2 2
7 6 5 5 4 6 7 5 3 4 4 4 3 3 3 5 5 5 5 4 4 4 3 4 4 5 4 4 5 4 4 4 3 2 2 1 2 2 2 2 2 2 2 2
7 7 5 6 7 7 7 7 5 4 5 4 3 1 3 4 5 5 4 4 3 3 3 3 3 4 4 4 4 5 4 3 3 2 2 2 2 2 1 2 2 2 2 2
5 6 7 7 5 5 6 7 6 5 5 5 4 1 2 5 4 3 3 3 4 4 3 3 3 3 3 4 4 4 4 3 3 3 2 2 1 1 2 1 1 1 2 2
6 5 6 5 5 5 6 7 7 6 5 5 5 2 2 4 3 2 2 2 4 4 3 3 3 2 2 3 3 3 3 3 3 3 2 2 2 2 1 1 1 1 1 2
4 6 8 7 5 4 5 6 6 6 5 6 6 4 2 0 2 2 2 3 3 3 2 3 2 2 2 2 2 2 2 2 3 3 2 2 2 2 1 1 1 1 1 1
4 7 8 9 9 8 8 8 8 8 8 9 7 6 3 1 1 2 1 2 3 3 2 2 2 1 1 1 2 2 2 2 2 3 3 2 2 2 1 1 1 1 1 1
4 7 8 9 9 8 10 10 10 10 9 10 9 7 2 2 0 1 1 2 2 2 1 1 1 2 1 1 2 2 2 2 2 3 3 3 3 2 2 2 2 2 1 1
5 7 7 8 8 9 10 8 9 9 8 8 8 5 1 2 2 1 1 2 1 1 2 2 1 1 1 2 2 2 2 2 2 2 2 2 2 2 2 2 2 2 2 2
7 7 5 6 7 9 3 3 3 4 6 4 4 3 2 2 2 1 1 2 1 1 1 0 0 0 0 1 1 0 1 2 2 2 2 2 2 2 2 2 2 2 2 2
7 6 4 5 6 7 5 2 2 4 5 4 4 3 2 2 2 1 2 3 2 1 1 1 1 1 1 1 1 0 1 1 1 1 1 1 2 2 2 3 3 2 2 2
6 6 6 6 6 6 1 4 4 4 3 4 5 4 3 2 2 1 3 3 3 2 2 2 1 1 1 1 1 0 1 1 0 1 1 1 1 2 3 3 3 2 2 2
5 6 7 8 8 5 2 3 3 2 2 5 5 5 4 3 3 2 3 2 2 2 2 2 1 1 1 1 0 1 1 0 0 1 1 1 1 2 3 3 2 3 2 2
4 3 5 5 7 4 2 2 2 3 4 4 5 5 5 4 3 2 2 2 1 1 1 1 0 1 0 0 0 1 1 0 1 1 0 1 1 2 2 3 2 2 3 2
3 3 3 3 2 1 2 2 3 4 5 4 4 4 4 3 3 2 2 2 2 1 0 0 0 1 0 0 1 1 1 1 1 1 0 0 1 2 2 3 3 2 2 2
3 3 4 5 3 2 1 2 3 4 5 5 4 4 4 4 3 3 3 3 2 1 1 0 0 1 1 1 1 1 1 1 1 1 1 1 1 1 1 2 2 2 2 2
5 4 6 8 6 4 2 2 3 3 4 5 5 4 4 3 3 3 3 3 2 2 1 1 1 2 2 1 2 1 1 1 1 1 1 1 1 1 1 1 1 2 2 3
6 6 6 5 5 4 4 3 3 3 3 4 4 4 4 3 4 3 3 2 2 2 1 1 2 2 2 2 2 1 1 1 1 1 1 1 1 1 1 1 1 1 2 2
Wind_Direction
207 221 228 224 225 250 268 276 267 231 201 206 226 230 204 176 191 195 183 181 170 162 160 154 144 134 141 138 133 132 133 129 119 108 101 117 121 116 101 101 81 49 57 63
214 228 236 242 247 254 252 263 260 224 217 243 246 245 233 181 181 182 189 186 173 162 158 154 151 147 159 142 140 140 139 141 127 119 128 129 135 148 128 108 110 92 79 78
223 226 226 235 244 252 254 256 263 259 271 258 252 249 237 189 171 163 187 185 171 162 156 154 154 152 151 146 147 141 139 139 132 135 123 107 96 91 97 124 120 113 98 90
236 236 239 241 245 263 264 269 269 266 255 255 236 250 226 182 169 168 173 174 176 156 149 148 149 148 153 137 134 135 142 145 139 137 138 142 139 157 184 161 145 150 122 110
241 235 243 250 253 257 269 288 268 265 263 270 252 250 215 175 174 171 165 164 175 152 150 153 152 155 150 140 140 147 144 137 134 139 136 152 155 183 160 142 142 155 136 134
247 238 249 262 261 262 263 265 261 252 250 254 246 239 214 188 172 159 160 160 164 151 147 147 145 149 144 141 142 148 146 140 131 132 140 164 168 176 144 155 163 168 149 166
232 219 215 235 247 234 245 255 254 234 216 235 222 221 178 121 117 132 140 144 147 145 144 142 142 148 148 148 149 149 138 134 134 143 160 182 176 174 171 178 177 173 164 169
250 223 199 208 238 249 239 239 249 269 268 284 241 215 121 103 104 110 115 118 127 136 143 146 147 145 151 151 149 149 144 142 144 160 179 191 167 166 181 177 172 189 195 176
291 270 168 199 244 263 256 244 260 279 285 274 231 169 149 128 121 115 115 114 125 127 133 140 145 145 147 151 149 151 150 153 161 172 186 193 176 177 174 182 191 194 201 172
298 286 244 197 229 237 261 281 272 251 277 275 261 221 172 145 137 129 122 119 111 114 127 135 142 147 149 149 153 160 163 165 162 164 197 189 187 197 188 182 193 196 196 180
294 276 252 205 215 233 224 237 245 254 258 272 287 15 68 122 129 131 132 127 122 119 131 136 137 141 146 150 160 168 170 166 164 168 190 204 202 206 205 183 196 192 200 185
304 293 263 242 217 231 243 251 253 251 267 273 279 285 88 98 98 98 101 129 137 127 127 126 125 134 144 158 168 171 170 171 171 179 191 195 198 216 206 190 189 195 201 186
335 293 274 241 209 203 234 244 255 260 265 267 265 232 109 84 88 91 93 95 103 105 101 107 115 132 148 158 166 167 171 176 169 170 181 181 195 221 223 193 163 198 195 190
301 277 277 281 305 288 256 257 259 256 255 263 260 247 245 131 112 93 90 97 104 105 95 101 118 140 155 159 158 165 175 167 159 162 173 187 203 211 217 171 166 206 188 172
261 272 283 290 290 290 284 271 260 255 259 267 281 280 275 272 126 118 121 104 107 105 98 108 125 121 150 152 154 165 172 169 161 160 179 194 204 204 199 171 182 176 141 160
248 272 287 284 277 270 271 266 258 255 259 265 271 275 282 316 14 120 126 111 114 118 127 120 131 140 161 188 183 184 189 189 181 173 183 200 199 188 179 177 164 149 152 171
257 264 276 276 280 282 264 260 251 249 250 256 267 278 277 263 269 215 109 106 136 132 147 162 186 141 182 191 189 200 200 207 199 183 183 201 190 173 179 170 152 155 166 180
257 269 275 281 279 257 259 308 303 284 279 276 289 317 322 315 336 44 70 106 92 76 112 142 177 135 81 66 57 90 210 211 201 189 183 186 172 170 172 163 164 168 166 173
245 249 260 265 270 274 269 302 330 297 286 317 305 310 351 7 336 9 45 53 64 70 76 58 27 17 44 27 53 32 224 195 171 165 176 155 158 167 170 167 169 158 150 170
222 237 244 255 262 263 316 25 4 315 280 12 358 348 0 343 294 5 43 31 27 52 62 53 28 2 359 28 57 286 225 197 203 166 162 145 146 162 171 166 166 153 158 175
215 223 233 249 257 264 355 16 341 269 4 17 357 347 351 334 345 2 12 11 13 41 62 59 34 359 343 32 39 293 269 255 296 99 122 143 151 170 162 154 147 143 160 165
263 252 239 243 248 254 40 14 340 352 1 358 352 351 351 357 1 0 359 351 347 30 61 61 11 307 332 21 333 285 289 357 64 72 131 153 155 159 147 142 151 154 163 157
249 266 283 262 244 15 34 359 359 347 337 349 353 349 343 336 338 332 323 312 296 289 321 343 288 274 263 263 282 263 282 75 91 89 351 210 157 146 153 160 166 161 161 161
278 283 272 273 262 268 293 329 341 341 331 340 342 337 334 320 317 312 306 297 285 271 224 198 243 266 280 292 289 249 221 157 165 197 220 218 162 139 156 157 163 160 173 173
294 302 282 273 279 285 277 304 317 316 319 331 338 335 330 322 311 307 298 293 294 284 254 233 246 248 251 264 261 242 237 186 219 227 232 210 172 151 145 154 169 179 181 173
265 264 266 276 307 304 313 347 337 319 315 320 321 319 323 313 305 300 294 294 295 296 285 271 266 260 248 243 248 227 196 188 214 225 236 219 194 159 167 164 136 92 157 149